COSMOS 1275 DEB, 42115

Orbit data source: Space-Track

COSMOS 1275 DEB, 42115 is space debris in LEO originally from a launch on Thu, 04 Jun 1981 UTC launched from the Plesetsk Missile And Space Complex (PKMTR). Debris objects in space refer to the collection of defunct objects orbiting the Earth. Examples of debris include non-operational satellites, rocket bodies, and fragments generated from explosions, collisions, or faulty payload assembly.

Loading next visibility...
Identifier
42115, 1981-053QB
Orbit
LEO
Country
Flag of CISCIS
Related business
Manufacturer
Unknown
Mission
Spacecraft
Bus & Motor
Unknown
Mass
Unknown
Launch date (UTC)
1981-06-04 (45 years ago)
Launch vehicle
Unknown
Launch site
Plesetsk Missile And Space Complex (PKMTR)
Object type
Payload
Rocket body
Debris
Shape & HBR
Unknown shape, 0.1 m
Radar Cross Section
Small (<0.1 m²)

Expand to show TLE details & history
Last TLE update: 2 days ago

TLE from 2 days ago
0 COSMOS 1275 DEB
1 42115U 81053QB  26171.43399194  .00002003  00000-0  10925-2 0  9993
2 42115  82.6562 235.2954 0055625 265.2877  94.1944 14.10939686643117
Epoch: 2026-06-20T10:24Z
TLE epoch observation values (Epoch: 2026-06-20T10:24:56.903Z)
Latitude
-0.00008°
Longitude
170.40962°
Altitude
862.267 km
Speed
7.42 km/s
True Right ascension
15h 41m 10s
True Declination
0° 00' 00"
Sunlit
Object was in full shadow at epoch
Visualization orbit readout
Latitude
Unknown
Longitude
Unknown
Altitude
Unknown
Speed
Unknown
Apparent Right ascension
Unknown
Apparent Declination
Unknown
Sunlit
N/A
Visualization observer readout
Local Sidereal Time
14:35:38
Azimuth
Unknown
Elevation
Unknown
Doppler factor
Unknown
Orbital elements
Apogee altitude
893.493 km
Perigee altitude
813.044 km
Semi-major axis
7,231.405 km
Eccentricity
0.00556
Inclination
82.6562°
RAAN
235.2954°
Arg. of periapsis
265.2877°
True anomaly
94.82977°
Mean anomaly
94.1944°
Eccentric anomaly
94.51212°
Mean motion
3.52947 °/min
Orbital period
102 mins
BSTAR
0.0010925
Loading maneuver chart data...
Computing Atmospheric mass density...
Loading historical data...
Loading historical data...
Loading historical data...
Loading historical data...
Loading historical data...
Loading historical data...
Loading historical data...

Documentation

Showing up to 5 results
|